Location: Huberhof
(49.2050°N, 7.4980°E)
Time: 05:25:16
(UTC+00:00)

Cosmos 2082 - Pass Details

Date: 29 October 2020
Orbit: 832 x 857 km, 71.0° (Epoch: 25 November)

Event Time Altitude Azimuth Distance (km) Brightness Sun altitude
Rises 18:10:29 0° 329° (NNW) 3,438 7.3 -19.6°
Reaches altitude 10° 18:12:57 10° 327° (NNW) 2,499 6.6 -20.0°
Maximum altitude 18:18:38 65° 247° (WSW) 938 4.1 -21.0°
Drops below altitude 10° 18:24:17 10° 166° (SSE) 2,483 6.0 -21.9°
Enters shadow 18:25:38 - 165° (SSE) 2,994 6.4 -22.1°
